Regional Weather Roundup
Issued by NWS

Home | Current Version | Previous Version | Text Only | Print | Product List | Glossary On
Versions: 1 2 3 4 5 6 7 8 9 10 11 12 13 14 15 16 17 18 19 20 21 22 23 24 25 26 27 28 29 30 31 32 33 34 35 36 37 38 39 40 41 42 43 44 45 46 47 48 49 50
000
ASUS43 KMPX 010110
RWRMN
WEATHER ROUNDUP FOR MINNESOTA
NATIONAL WEATHER SERVICE TWIN CITIES/CHANHASSEN MN
800 PM CDT TUE MAR 31 2015


NOTE: "FAIR" INDICATES FEW OR NO CLOUDS BELOW 12,000 FEET WITH NO
SIGNIFICANT WEATHER AND/OR OBSTRUCTIONS TO VISIBILITY. N/A MEANS
CURRENT SKY AND/OR WEATHER CONDITIONS ARE NOT AVAILABLE.

MNZ060>063-068>070-010200-
   Twin Cities Metro

CITY           SKY/WX    TMP DP  RH WIND       PRES   REMARKS
TWIN CITIES    PTCLDY    61  26  26 VRB3      29.88S
ST PAUL        CLEAR     58  24  27 CALM      29.88S
CRYSTAL        CLEAR     54  26  34 CALM      29.87S
BLAINE         PTCLDY    61  25  25 W5        29.87S
LAKEVILLE      CLEAR     54  30  40 CALM      29.88S
EDEN PRAIRIE   CLEAR     57  29  34 CALM      29.87R
SOUTH ST PAUL  PTCLDY    57  25  29 CALM      29.88R
LAKE ELMO      FAIR      52  32  46 CALM      29.89R
$$
MNZ001>005-007-008-013>017-022>024-027-028-010200-
   Northwest Minnesota

CITY           SKY/WX    TMP DP  RH WIND       PRES   REMARKS
BEMIDJI        MOCLDY    47  27  45 CALM      29.85S
HALLOCK        MOCLDY    52  36  54 SE7       29.82S
ROSEAU         CLOUDY    46  39  76 E9        29.84S
WARROAD        CLOUDY    39  34  81 E8        29.85F
THIEF RVR FALL PTCLDY    52  30  43 E6        29.83F
CROOKSTON      CLEAR     54  34  47 E6        29.82F
FOSSTON        PTCLDY    48  43  81 CALM      29.84F
DETROIT LAKES  PTCLDY    55  27  33 SE3       29.84F
MOORHEAD       CLEAR     57  25  28 E6        29.81F
PARK RAPIDS    PTCLDY    55  25  31 E3        29.84S
MAHNOMEN       FAIR      53  30  41 CALM      29.83S
$$
MNZ006-009>011-018-025>026-010200-
   North Central Minnesota

CITY           SKY/WX    TMP DP  RH WIND       PRES   REMARKS
BAUDETTE       MOCLDY    42  32  67 E5        29.85S
FLAG ISLAND    PTCLDY    36  32  87 CALM      29.85F
INTL FALLS     PTCLDY    35  28  75 E5        29.88S WCI  31
WASKISH        MOCLDY    45  32  61 CALM      29.87R
BIG FORK       MOCLDY    46  25  42 NE5       29.88R
LONGVILLE      PTCLDY    43  28  56 CALM      29.86S
GRAND RAPIDS   MOCLDY    48  27  43 CALM      29.88R
ORR            PTCLDY    41  27  56 CALM      29.86S
COOK           PTCLDY    45  28  53 CALM      29.88F
WALKER         FAIR      45  28  50 CALM      29.86S
$$
MNZ012-019>021-037-010200-
   Northeast Minnesota

CITY           SKY/WX    TMP DP  RH WIND       PRES   REMARKS
DULUTH         PTCLDY    45  28  51 E8        29.89R
ELY            CLEAR     39  28  65 CALM      29.89F
HIBBING        PTCLDY    40  25  55 CALM      29.87S
EVELETH        PTCLDY    43  28  56 NE3       29.89S
DULUTH HARBOR  PTCLDY    39  34  81 N9        29.91R
TWO HARBORS    MOCLDY    43  34  70 E3        29.90R
SILVER BAY     PTCLDY    36  30  80 NE8       29.92R
GRAND MARAIS     N/A     32  29  88 E15       29.97R WCI  22
G MARAIS ARPRT CLOUDY    34  28  80 CALM      29.92R
$$
MNZ029>031-032-039>041-046>048-054>057-064-010200-
   West Central Minnesota

CITY           SKY/WX    TMP DP  RH WIND       PRES   REMARKS
FERGUS FALLS   CLEAR     57  19  23 E5        29.83S
WHEATON        CLEAR     54  36  50 E12       29.82F
MORRIS         CLEAR     54  37  54 E8        29.82S
ALEXANDRIA     CLOUDY    56  28  34 E6        29.85S
ELBOW LAKE     MOCLDY    56  31  38 E6        29.82F
WADENA         PTCLDY    52  27  37 CALM      29.85S
GLENWOOD       MOCLDY    54  34  47 E6        29.85F
APPLETON       CLEAR     57  36  44 E13       29.81F
BENSON         CLEAR     57  30  35 SE6       29.84S
ORTONVILLE     CLEAR     55  36  47 E10       29.80S
MADISON        CLEAR     57  28  33 E9        29.81S
WILLMAR        FAIR      57  28  33 E6        29.86S
$$
MNZ033>034-036-042>043-049>051-058-059-010200-
   Central Minnesota

CITY           SKY/WX    TMP DP  RH WIND       PRES   REMARKS
ST CLOUD       CLEAR     54  28  36 CALM      29.86S
SAUK CENTRE    MOCLDY    53  30  40 NE3       29.85F
PAYNESVILLE    PTCLDY    55  30  38 CALM      29.86S
AITKIN         PTCLDY    48  30  49 CALM      29.86S
PINE RIVER     PTCLDY    52  32  46 CALM      29.90R
BRAINERD       PTCLDY    53  26  35 CALM      29.86S
STAPLES        CLEAR     52  25  35 CALM      29.86R
LONG PRAIRIE   FAIR      52  37  58 CALM      29.86F
LITTLE FALLS   CLEAR     50  23  34 CALM      29.86S
LITCHFIELD     PTCLDY    55  37  50 CALM      29.86F
BUFFALO        CLEAR     55  32  41 CALM      29.88S
MAPLE LAKE     CLEAR     52  31  45 CALM      29.87F
$$
MNZ037-044-045-052-053-010200-
   East Central Minnesota

CITY           SKY/WX    TMP DP  RH WIND       PRES   REMARKS
PRINCETON      CLEAR     54  28  37 CALM      29.87F
MORA           PTCLDY    50  30  46 CALM      29.89S
CAMBRIDGE      PTCLDY    55  34  44 CALM      29.86S
RUSH CITY      PTCLDY    51  31  45 NE3       29.88S
MOOSE LAKE     PTCLDY    50  27  40 CALM      29.86S
HINCKLEY       FAIR      52  25  35 CALM      29.88S
CLOQUET        PTCLDY    50  19  29 CALM      29.88S
MCGREGOR       PTCLDY    48  32  53 CALM      29.88S
$$
MNZ071>073-080-081-089-090-097-098-010200-
   Southwest Minnesota

CITY           SKY/WX    TMP DP  RH WIND       PRES   REMARKS
MONTEVIDEO     PTCLDY    59  34  38 SE9       29.83S
GRANITE FALLS  PTCLDY    60  32  34 E7        29.84S
CANBY          CLEAR     60  32  35 E8        29.80F
MARSHALL       CLEAR     64  30  27 E12       29.82S
REDWOOD FALLS  PTCLDY    63  32  31 E7        29.83S
OLIVIA         PTCLDY    57  34  41 E7        29.84S
PIPESTONE      CLEAR     64  28  25 S7        29.82S
WINDOM         CLEAR     64  30  27 CALM      29.85S
WORTHINGTON    CLEAR     64  28  25 S6        29.85F
JACKSON        CLEAR     64  27  24 S3        29.86S
TRACY          CLEAR     62  33  33 SE8       29.83S
SLAYTON        CLEAR     63  24  22 CALM      29.84S
$$
MNZ065>067-074>077-082>085-091>093-010200-
   South Central Minnesota

CITY           SKY/WX    TMP DP  RH WIND       PRES   REMARKS
MANKATO        PTCLDY    59  34  38 E7        29.87S
NEW ULM        MOCLDY    63  30  29 E8        29.85S
ST JAMES       PTCLDY    63  28  27 E7        29.86S
FAIRMONT       CLEAR     61  23  23 E7        29.86S
GLENCOE        PTCLDY    57  37  47 CALM      29.86S
FARIBAULT      CLEAR     54  37  54 CALM      29.89S
OWATONNA       CLEAR     55  36  47 CALM      29.89S
WASECA         PTCLDY    57  36  44 NE5       29.89S
ALBERT LEA     CLEAR     59  34  38 E5        29.88S
$$
MNZ078>079-086>088-094>096-010200-
   Southeast Minnesota

CITY           SKY/WX    TMP DP  RH WIND       PRES   REMARKS
ROCHESTER      CLEAR     57  31  37 CALM      29.91S
RED WING       CLEAR     52  30  43 CALM      29.88S
STANTON        CLEAR     57  33  41 CALM      29.88R
DODGE CENTER   CLEAR     55  34  44 CALM      29.90S
WINONA         CLEAR     55  32  41 W3        29.90R
AUSTIN         CLEAR     57  36  44 NE3       29.89S
PRESTON        CLEAR     55  32  40 CALM      29.91S
$$
ABBREVIATIONS USED IN REMARKS
   TC - TEMPERATURES IN CELSIUS
  WCI - WIND CHILL INDEX
   HX - HEAT INDEX
  VSB - VISIBILITY
$$


USA.gov is the U.S. government's official web portal to all federal, state and local government web resources and services.